Regional Weather Roundup
Issued by NWS

Home | Current Version | Previous Version | Text Only | Print | Product List | Glossary On
Versions: 1 2 3 4 5 6 7 8 9 10 11 12 13 14 15 16 17 18 19 20 21 22 23 24 25 26 27 28 29 30 31 32 33 34 35 36 37 38 39 40 41 42 43 44 45 46 47 48 49 50
000
ASUS46 KLOX 250812
RWRCA

SOUTHERN CALIFORNIA WEATHER ROUNDUP
NATIONAL WEATHER SERVICE OXNARD CALIFORNIA
100 AM PDT FRI APR 25 2014

NOTE: "FAIR" INDICATES FEW OR NO CLOUDS BELOW 12,000 FEET WITH NO
SIGNIFICANT WEATHER AND/OR OBSTRUCTIONS TO VISIBILITY.

  -  STATIONS PRECEEDED BY AN ASTERISK (*) ARE NOT NWS OR FAA
     STATIONS AND ARE NOT SUBJECT TO NWS AND FAA QUALITY CONTROL.

CAZ041-042-087-250900-
LA AND ORANGE COUNTY COASTAL AREAS


CITY           SKY/WX    TMP DP  RH WIND       PRES   REMARKS
L.A. DOWNTOWN  PTCLDY    60  52  74 CALM      29.92F
L.A. AIRPORT   PTCLDY    62  54  74 VRB6      29.93S
LONG BEACH     PTCLDY    61  54  77 S3        29.92F

CITY           SKY/WX    TMP DP  RH WIND       PRES   REMARKS
AVALON           N/A     61 N/A N/A MISG        N/A
FULLERTON      CLEAR     62  51  67 CALM      29.91F
HAWTHORNE      PTCLDY    61  51  70 CALM      29.93S
*LEO CARRILLO    N/A     57  52  84 NE7         N/A
*LOS ALAMITOS  FAIR      60  55  85 SE2       29.92F
*REDONDO BEACH   N/A     56  52  87 CALM      29.91S
SANTA ANA      CLEAR     62  46  55 S3        29.91F
STA MONICA APT PTCLDY    61  54  77 CALM      29.93S
*UCLA            N/A     55  52  88 CALM      29.89F

$$

CAZ547-548-048-250900-
LA COUNTY VALLEYS AND INLAND EMPIRE


CITY           SKY/WX    TMP DP  RH WIND       PRES   REMARKS
BURBANK        PTCLDY    60  49  66 CALM      29.92R
VAN NUYS       PTCLDY    59  49  69 CALM      29.92R

CITY           SKY/WX    TMP DP  RH WIND       PRES   REMARKS
CORONA AIRPORT SUNNY     50  43  77 CALM        N/A
*CHATSWORTH      N/A     59  47  64 CALM      29.89F
CHINO          CLEAR     57  49  74 NE3       29.93F
*CLAREMONT       N/A     52  37  56 CALM        N/A
MARCH AFB      PTCLDY    53  49  86 SE8       29.94F
*NORTHRIDGE      N/A     59  48  67 E1          N/A
ONTARIO        CLEAR     60  46  59 CALM      29.92F
*PASADENA        N/A     59  50  72 CALM        N/A
RIVERSIDE      CLEAR     59  44  57 CALM      29.92F
SAN BERNARDINO NOT AVBL
*SAN GABRIEL     N/A     61  48  63 CALM      29.89S
*SAN RAFAEL HI   N/A     55  41  60 SW9         N/A
*SAUGUS          N/A     57  39  51 SE6         N/A
*WHITEMAN AP   NOT AVBL
*WHITTIER HILL   N/A     53  49  86 S2          N/A
*WOODLAND HILL   N/A     55  48  76 E1          N/A

$$

CAZ054-055-250900-
LA AND SAN BERNARDINO COUNTY MOUNTAINS


CITY           SKY/WX    TMP DP  RH WIND       PRES   REMARKS
*ACTON           N/A     51  31  47 CALM        N/A
*BIG BEAR AIRP MOSUNNY   41  32  70 SW5       30.06F
*BIG PINES       N/A     45  26  47 CALM        N/A
MT WILSON NWS    N/A     46  27  46 S5          N/A
SANDBERG       CLEAR     54  35  48 NW18      29.99F

$$

CAZ028-029-059-060-099-250900-
ANTELOPE VALLEY AND SURROUNDING AREAS


CITY           SKY/WX    TMP DP  RH WIND       PRES   REMARKS
LANCASTER      PTCLDY    60  36  40 W15       29.90F
PALMDALE       PTCLDY    60  32  34 SW8G18    29.92F
*POPPY PARK      N/A     59  33  38 W14G28      N/A

CITY           SKY/WX    TMP DP  RH WIND       PRES   REMARKS
29 PALMS       PTCLDY    67  37  33 W12       29.92S
BARSTOW/DAGGET PTCLDY    69  30  23 SW12      29.85F
BISHOP         MOCLDY    65  25  22 SW12      29.82F
CHINA LAKE       N/A     65  36  34 SW12      29.80F
EDWARDS AFB    PTCLDY    59  35  41 W12       29.88F
MOJAVE         FAIR      59  37  44 W21       29.88F
NEEDLES        PTCLDY    75  10   8 W6        29.78S
VICTORVILLE    PTCLDY    55  32  41 S9        29.92F

$$

CAZ039-040-250900-
VENTURA AND SANTA BARBARA COUNTY COAST


CITY           SKY/WX    TMP DP  RH WIND       PRES   REMARKS
CAMARILLO      CLEAR     57  52  83 NW6       29.90S
NWS OXNARD       N/A     56  52  85 CALM      29.90S
OXNARD AIRPORT CLEAR     59  53  80 CALM      29.90S
*POINT MUGU    CLEAR     60  55  83 S12       29.90S
SBA APT/GOLETA CLEAR     58  50  75 E6        29.89R
*SANTA BARBARA   N/A     59  53  79 CALM      29.98S
*VENTURA         N/A     57  49  75 CALM      29.96R

$$

CAZ044-045-250900-
VENTURA COUNTY VALLEYS


CITY           SKY/WX    TMP DP  RH WIND       PRES   REMARKS
*SIMI VALLEY     N/A     58  42  53 NE5       29.85F
*OJAI            N/A     49  43  79 CALM      29.86R
*FILLMORE        N/A     52  44  72 CALM      29.81S

$$

CAZ053-250900-
VENTURA COUNTY MOUNTAINS


CITY           SKY/WX    TMP DP  RH WIND       PRES   REMARKS
*LOCKWOOD VLY    N/A     34  25  69 MISG        N/A
*ROSE VALLEY     N/A     41  34  75 MISG        N/A

$$

CAZ034-035-036-250900-
CENTRAL COAST AND SANTA YNEZ VALLEY


CITY           SKY/WX    TMP DP  RH WIND       PRES   REMARKS
SAN LUIS OBISP CLEAR     53  49  86 CALM      29.94F
SANTA MARIA    CLOUDY    54  50  87 N3        29.96F

CITY           SKY/WX    TMP DP  RH WIND       PRES   REMARKS
*CAL POLY SLO    N/A     52  50  93 NE3         N/A
*CAMBRIA         N/A     50  49  94 CALM      29.84F
*LOMPOC        MOCLDY    54  48  82 W7        29.98F
*PISMO BEACH     N/A     53  50  90 CALM      29.95F
*SANTA YNEZ    CLOUDY    50  46  87 W6        29.97R

$$

CAZ037-038-051-250900-
SAN LUIS OBISPO COUNTY INTERIOR AND CUYAMA VALLEY


CITY           SKY/WX    TMP DP  RH WIND       PRES   REMARKS
PASO ROBLES    PTCLDY    55  46  71 NW8       29.95F

$$

CAZ032-033-061-250900-
SOUTHERN DESERTS


CITY           SKY/WX    TMP DP  RH WIND       PRES   REMARKS
BLYTHE         CLEAR     76  24  14 S15       29.79F
IMPERIAL       PTCLDY    66  42  41 W6        29.78F
PALM SPRINGS   PTCLDY    73  40  30 W9        29.81S
THERMAL        PTCLDY    74  43  32 NW15      29.76F

$$

ELSEWHERE ACROSS THE WESTERN UNITED STATES AND MEXICO


CITY           SKY/WX    TMP DP  RH WIND       PRES   REMARKS
DENVER, CO     PTCLDY    46  27  47 S10       29.92F
GRAND CANYON,  PTCLDY    28   5  37 CALM      30.05F
HONOLULU, HI   MOCLDY    75  66  73 NE16      30.13R
KAHULUI, MAUI  PTCLDY    73  68  83 NE13G22   30.14R
LAKE TAHOE, CA LGT RAIN  39  31  72 S13G24    29.90F WCI  31
LAS VEGAS, NV  PTCLDY    73  12   9 S16G24    29.75S
MAMMOTH LAKES, FAIR      46  25  42 S21G38    29.93S
MEXICO CITY, M PTCLDY    64  41  42 SE5       30.29F
PHOENIX, AZ    PTCLDY    78  20  11 CALM      29.83F
PORTLAND, OR   CLOUDY    47  43  86 E5        29.92S
RENO, NV       MOCLDY    52  31  44 S21G41    29.84F
SALT LAKE CITY MOCLDY    52  35  52 CALM      29.84F
SAN DIEGO, CA  PTCLDY    62  53  72 S8        29.96F
SAN FRANCISCO, CLOUDY    59  55  87 W10       29.97F
SAN JOSE, CA   CLOUDY    59  53  80 NE5       29.97F
SEATTLE, WA    MOCLDY    44  41  89 S7        29.91F
TIJUANA, MEX   CLEAR     57  52  82 E3        29.99S

$$

STATION/POSITION TIME  TEMP    WIND        PRES    VSBY  WAVE
                       AIR SEA DIR/SP/G                  HT/PER
                 (UTC) (F)     (DEG/KT/KT) (MB)    (MI)  (FT/S)
POINT ARGUELLO B NOT AVBL
WEST SANTA BARBA 0800   54 54  320/ 25/ 29 1012.8S         8/11
POINT CONCEPTION NOT AVBL
EAST SANTA BARBA NOT AVBL
SANTA MONICA BAY 0800   60 61  140/  8/ 10 1012.2S         4/ 8



USA.gov is the U.S. government's official web portal to all federal, state and local government web resources and services.